contact: severine.martini@mio.osupytheas.fr, dominique.lefevre@mio.osupytheas.fr
Project:EMSO Ligure-ouest http://www.emso-fr.org/EMSO-France
Sensor Optode, line 4330 Serial 272 
DOI : "https://doi.org/10.17882/97948" 
Title:EMSO Ligure Ouest : Data BathyDock capteur Optode - deploiement "2023-04-28"
Datetime,Profondeur,Latitude,Longitude,optode_type,serial,O2_concentration,O2_saturation,Temperature,Calibrated_Phase,Temp_Compensated_Phase,phase_blue_light,phase_red_light,Amplitude_blue_light,Amplitude_red_light,thermistor_bridge
time,m,degree_north,degree_east,1,1,umol.l-1,%,degree_C,degree,degree,degree,degree,mV,mV,mV
2023-12-30T00:00:07,2420,42.8014,5.9826,4330,272,186.089,57.011,13.323,36.057,36.637,41.220,4.583,295.9,545.3,290.8
2023-12-30T00:03:07,2420,42.8014,5.9826,4330,272,186.057,57.003,13.325,36.059,36.639,41.222,4.583,295.8,545.2,290.7
2023-12-30T00:06:07,2420,42.8014,5.9826,4330,272,185.996,56.990,13.329,36.061,36.641,41.227,4.586,295.8,545.3,290.6
2023-12-30T00:09:07,2420,42.8014,5.9826,4330,272,185.980,56.979,13.325,36.064,36.644,41.229,4.586,295.9,545.3,290.7
2023-12-30T00:12:07,2420,42.8014,5.9826,4330,272,185.960,56.972,13.324,36.065,36.645,41.230,4.585,295.9,545.3,290.8
2023-12-30T00:15:08,2420,42.8014,5.9826,4330,272,186.150,57.027,13.322,36.055,36.634,41.223,4.589,295.9,545.3,290.8
2023-12-30T00:18:08,2420,42.8014,5.9826,4330,272,186.178,57.035,13.321,36.053,36.633,41.223,4.590,295.9,545.3,290.9
2023-12-30T00:21:08,2420,42.8014,5.9826,4330,272,186.157,57.027,13.320,36.055,36.635,41.219,4.585,295.8,545.3,290.9
2023-12-30T00:24:08,2420,42.8014,5.9826,4330,272,186.050,57.006,13.329,36.057,36.637,41.230,4.593,295.8,545.3,290.6
2023-12-30T00:27:08,2420,42.8014,5.9826,4330,272,186.197,57.048,13.327,36.049,36.629,41.216,4.587,295.8,545.2,290.7
2023-12-30T00:30:07,2420,42.8014,5.9826,4330,272,186.286,57.070,13.322,36.045,36.625,41.214,4.589,295.9,545.3,290.8
2023-12-30T00:33:07,2420,42.8014,5.9826,4330,272,186.300,57.074,13.322,36.044,36.624,41.212,4.588,295.8,545.3,290.8
2023-12-30T00:36:07,2420,42.8014,5.9826,4330,272,186.201,57.047,13.325,36.049,36.629,41.218,4.589,295.8,545.2,290.7
2023-12-30T00:39:07,2420,42.8014,5.9826,4330,272,186.181,57.040,13.324,36.051,36.631,41.218,4.588,295.9,545.3,290.8
2023-12-30T00:42:08,2420,42.8014,5.9826,4330,272,186.199,57.044,13.323,36.050,36.630,41.218,4.588,295.9,545.3,290.8
2023-12-30T00:45:08,2420,42.8014,5.9826,4330,272,186.384,57.097,13.320,36.040,36.620,41.206,4.586,295.9,545.3,290.9
2023-12-30T00:48:08,2420,42.8014,5.9826,4330,272,186.141,57.027,13.323,36.054,36.634,41.222,4.588,295.8,545.4,290.8
2023-12-30T00:51:07,2420,42.8014,5.9826,4330,272,186.075,57.002,13.320,36.060,36.640,41.227,4.587,295.9,545.3,290.9
2023-12-30T00:54:07,2420,42.8014,5.9826,4330,272,186.032,56.990,13.321,36.062,36.642,41.227,4.585,295.8,545.3,290.9
2023-12-30T00:57:07,2420,42.8014,5.9826,4330,272,186.089,57.014,13.326,36.056,36.636,41.216,4.579,295.9,545.2,290.7
2023-12-30T01:00:08,2420,42.8014,5.9826,4330,272,186.069,57.018,13.334,36.054,36.633,41.218,4.585,295.9,545.3,290.4
2023-12-30T01:03:07,2420,42.8014,5.9826,4330,272,186.125,57.021,13.322,36.055,36.635,41.225,4.590,295.9,545.3,290.8
2023-12-30T01:06:07,2420,42.8014,5.9826,4330,272,186.062,57.008,13.328,36.057,36.637,41.220,4.583,295.9,545.3,290.6
2023-12-30T01:09:08,2420,42.8014,5.9826,4330,272,186.018,56.994,13.327,36.060,36.640,41.224,4.584,295.9,545.3,290.7
2023-12-30T01:12:07,2420,42.8014,5.9826,4330,272,185.768,56.922,13.331,36.075,36.655,41.240,4.585,295.9,545.3,290.5
2023-12-30T01:15:08,2420,42.8014,5.9826,4330,272,185.965,56.995,13.340,36.057,36.637,41.225,4.588,295.9,545.2,290.2
2023-12-30T01:18:08,2420,42.8014,5.9826,4330,272,185.969,56.991,13.336,36.059,36.639,41.227,4.588,295.9,545.2,290.4
2023-12-30T01:21:08,2420,42.8014,5.9826,4330,272,186.033,56.996,13.325,36.061,36.640,41.230,4.589,295.9,545.3,290.7
2023-12-30T01:24:08,2420,42.8014,5.9826,4330,272,185.754,56.910,13.324,36.079,36.659,41.244,4.586,296.0,545.3,290.8
2023-12-30T01:27:07,2420,42.8014,5.9826,4330,272,186.062,57.011,13.330,36.056,36.636,41.224,4.588,295.9,545.3,290.6
2023-12-30T01:30:07,2420,42.8014,5.9826,4330,272,185.833,56.946,13.334,36.069,36.649,41.239,4.591,295.9,545.2,290.4
2023-12-30T01:33:08,2420,42.8014,5.9826,4330,272,185.912,56.952,13.320,36.071,36.651,41.238,4.587,295.9,545.3,290.9
2023-12-30T01:36:07,2420,42.8014,5.9826,4330,272,185.945,56.963,13.321,36.069,36.648,41.238,4.590,296.0,545.3,290.9
2023-12-30T01:39:07,2420,42.8014,5.9826,4330,272,185.936,56.980,13.336,36.062,36.641,41.229,4.587,295.9,545.2,290.4
2023-12-30T01:42:07,2420,42.8014,5.9826,4330,272,185.917,56.966,13.330,36.066,36.645,41.232,4.586,295.9,545.2,290.6
2023-12-30T01:45:07,2420,42.8014,5.9826,4330,272,186.055,57.005,13.327,36.058,36.638,41.225,4.587,296.0,545.3,290.7
2023-12-30T01:48:07,2420,42.8014,5.9826,4330,272,185.836,56.933,13.323,36.074,36.654,41.235,4.581,295.9,545.2,290.8
2023-12-30T01:51:07,2420,42.8014,5.9826,4330,272,185.838,56.936,13.325,36.073,36.653,41.237,4.584,296.0,545.3,290.7
2023-12-30T01:54:08,2420,42.8014,5.9826,4330,272,185.835,56.943,13.332,36.070,36.650,41.231,4.581,295.9,545.2,290.5
2023-12-30T01:57:08,2420,42.8014,5.9826,4330,272,185.949,56.962,13.319,36.069,36.649,41.237,4.589,296.0,545.2,290.9
2023-12-30T02:00:08,2420,42.8014,5.9826,4330,272,185.906,56.949,13.319,36.071,36.651,41.237,4.586,296.0,545.2,290.9
2023-12-30T02:03:07,2420,42.8014,5.9826,4330,272,186.162,57.032,13.322,36.053,36.633,41.228,4.595,296.0,545.2,290.8
2023-12-30T02:06:07,2420,42.8014,5.9826,4330,272,186.065,57.021,13.337,36.053,36.633,41.218,4.585,295.8,545.2,290.3
2023-12-30T02:09:07,2420,42.8014,5.9826,4330,272,186.066,57.015,13.332,36.055,36.635,41.222,4.588,295.9,545.2,290.5
2023-12-30T02:12:07,2420,42.8014,5.9826,4330,272,186.029,56.990,13.322,36.062,36.642,41.229,4.587,296.0,545.2,290.8
2023-12-30T02:15:07,2420,42.8014,5.9826,4330,272,185.851,56.946,13.330,36.070,36.650,41.239,4.589,295.9,545.2,290.6
2023-12-30T02:18:07,2420,42.8014,5.9826,4330,272,185.937,56.959,13.319,36.069,36.649,41.244,4.595,296.0,545.2,290.9
2023-12-30T02:21:07,2420,42.8014,5.9826,4330,272,186.066,57.011,13.329,36.057,36.637,41.227,4.591,295.9,545.2,290.6
2023-12-30T02:24:07,2420,42.8014,5.9826,4330,272,186.116,57.016,13.321,36.057,36.637,41.225,4.588,296.0,545.2,290.9
2023-12-30T02:27:07,2420,42.8014,5.9826,4330,272,186.124,57.011,13.315,36.059,36.639,41.226,4.587,296.0,545.3,291.1
2023-12-30T02:30:08,2420,42.8014,5.9826,4330,272,186.158,57.019,13.313,36.058,36.638,41.223,4.585,295.9,545.4,291.1
2023-12-30T02:33:07,2420,42.8014,5.9826,4330,272,185.764,56.906,13.319,36.080,36.660,41.244,4.584,295.9,545.3,290.9
2023-12-30T02:36:07,2420,42.8014,5.9826,4330,272,186.005,56.986,13.324,36.062,36.642,41.229,4.587,296.0,545.2,290.8
2023-12-30T02:39:08,2420,42.8014,5.9826,4330,272,186.098,57.012,13.322,36.057,36.637,41.220,4.583,295.9,545.3,290.8
2023-12-30T02:42:08,2420,42.8014,5.9826,4330,272,185.986,56.975,13.320,36.065,36.645,41.230,4.585,295.9,545.3,290.9
2023-12-30T02:45:08,2420,42.8014,5.9826,4330,272,186.098,57.009,13.320,36.059,36.639,41.224,4.586,295.9,545.3,290.9
2023-12-30T02:48:08,2420,42.8014,5.9826,4330,272,186.331,57.080,13.320,36.043,36.623,41.213,4.589,295.9,545.3,290.9
2023-12-30T02:51:07,2420,42.8014,5.9826,4330,272,185.885,56.941,13.317,36.074,36.653,41.241,4.588,295.9,545.3,291.0
2023-12-30T02:54:07,2420,42.8014,5.9826,4330,272,186.035,56.993,13.322,36.061,36.641,41.232,4.590,295.9,545.3,290.8
2023-12-30T02:57:07,2420,42.8014,5.9826,4330,272,185.732,56.898,13.321,36.082,36.662,41.242,4.580,296.0,545.3,290.9
2023-12-30T03:00:07,2420,42.8014,5.9826,4330,272,185.910,56.959,13.326,36.068,36.648,41.237,4.590,296.0,545.3,290.7
2023-12-30T03:03:07,2420,42.8014,5.9826,4330,272,186.111,57.021,13.326,36.055,36.635,41.225,4.590,295.9,545.3,290.7
2023-12-30T03:06:08,2420,42.8014,5.9826,4330,272,185.833,56.923,13.316,36.078,36.658,41.246,4.589,296.0,545.3,291.0
2023-12-30T03:09:07,2420,42.8014,5.9826,4330,272,186.137,57.019,13.318,36.057,36.637,41.225,4.588,296.0,545.3,291.0
2023-12-30T03:12:08,2420,42.8014,5.9826,4330,272,186.073,57.000,13.319,36.061,36.641,41.230,4.590,295.9,545.4,290.9
2023-12-30T03:15:08,2420,42.8014,5.9826,4330,272,186.155,57.021,13.316,36.057,36.637,41.221,4.584,295.9,545.4,291.0
2023-12-30T03:18:07,2420,42.8014,5.9826,4330,272,186.186,57.036,13.319,36.053,36.633,41.219,4.586,296.0,545.3,290.9
2023-12-30T03:21:07,2420,42.8014,5.9826,4330,272,185.856,56.937,13.321,36.074,36.653,41.238,4.585,296.0,545.3,290.9
2023-12-30T03:24:07,2420,42.8014,5.9826,4330,272,185.999,56.982,13.322,36.064,36.643,41.232,4.588,295.9,545.3,290.8
2023-12-30T03:27:08,2420,42.8014,5.9826,4330,272,186.049,56.996,13.322,36.061,36.641,41.232,4.592,296.1,545.3,290.8
2023-12-30T03:30:07,2420,42.8014,5.9826,4330,272,186.181,57.033,13.318,36.054,36.634,41.218,4.584,295.9,545.3,290.9
2023-12-30T03:33:08,2420,42.8014,5.9826,4330,272,186.100,57.002,13.314,36.061,36.641,41.233,4.591,296.0,545.3,291.1
2023-12-30T03:36:07,2420,42.8014,5.9826,4330,272,186.138,57.018,13.317,36.058,36.637,41.229,4.591,296.0,545.3,291.0
2023-12-30T03:39:08,2420,42.8014,5.9826,4330,272,186.013,56.974,13.313,36.068,36.647,41.232,4.584,295.9,545.4,291.1
2023-12-30T03:42:08,2420,42.8014,5.9826,4330,272,185.832,56.919,13.313,36.079,36.659,41.244,4.585,295.9,545.3,291.1
2023-12-30T03:45:07,2420,42.8014,5.9826,4330,272,186.092,57.007,13.319,36.060,36.639,41.227,4.587,295.9,545.5,290.9
2023-12-30T03:48:08,2420,42.8014,5.9826,4330,272,186.055,56.994,13.318,36.062,36.642,41.225,4.583,295.9,545.3,291.0
2023-12-30T03:51:07,2420,42.8014,5.9826,4330,272,186.102,57.004,13.315,36.061,36.641,41.231,4.590,295.9,545.4,291.1
2023-12-30T03:54:08,2420,42.8014,5.9826,4330,272,185.894,56.945,13.318,36.073,36.652,41.240,4.587,296.0,545.3,291.0
2023-12-30T03:57:08,2420,42.8014,5.9826,4330,272,186.245,57.047,13.314,36.052,36.632,41.222,4.590,295.9,545.3,291.1
2023-12-30T04:00:07,2420,42.8014,5.9826,4330,272,186.144,57.009,13.309,36.062,36.641,41.227,4.585,296.0,545.4,291.3
2023-12-30T04:03:08,2420,42.8014,5.9826,4330,272,186.111,56.998,13.308,36.064,36.643,41.228,4.585,295.9,545.3,291.3
2023-12-30T04:06:07,2420,42.8014,5.9826,4330,272,186.372,57.083,13.312,36.045,36.625,41.213,4.588,295.9,545.2,291.2
2023-12-30T04:09:08,2420,42.8014,5.9826,4330,272,186.217,57.045,13.319,36.051,36.631,41.224,4.593,295.8,545.2,290.9
2023-12-30T04:12:07,2420,42.8014,5.9826,4330,272,186.083,56.991,13.309,36.064,36.644,41.232,4.588,296.0,545.3,291.2
2023-12-30T04:15:08,2420,42.8014,5.9826,4330,272,186.266,57.054,13.314,36.050,36.630,41.223,4.592,295.8,545.4,291.1
2023-12-30T04:18:08,2420,42.8014,5.9826,4330,272,185.988,56.975,13.320,36.066,36.646,41.233,4.587,295.9,545.3,290.9
2023-12-30T04:21:07,2420,42.8014,5.9826,4330,272,186.095,56.997,13.311,36.063,36.643,41.229,4.587,295.8,545.3,291.2
2023-12-30T04:24:07,2420,42.8014,5.9826,4330,272,186.262,57.044,13.307,36.054,36.634,41.222,4.588,295.9,545.3,291.3
2023-12-30T04:27:07,2420,42.8014,5.9826,4330,272,186.100,57.011,13.321,36.058,36.638,41.225,4.587,295.8,545.3,290.9
2023-12-30T04:30:08,2420,42.8014,5.9826,4330,272,186.087,57.005,13.320,36.060,36.639,41.233,4.593,295.8,545.4,290.9
2023-12-30T04:33:07,2420,42.8014,5.9826,4330,272,186.238,57.049,13.317,36.051,36.631,41.220,4.589,295.9,545.3,291.0
2023-12-30T04:36:08,2420,42.8014,5.9826,4330,272,186.013,56.975,13.313,36.068,36.647,41.236,4.589,295.9,545.3,291.1
2023-12-30T04:39:08,2420,42.8014,5.9826,4330,272,186.320,57.067,13.312,36.048,36.628,41.216,4.588,295.9,545.3,291.2
2023-12-30T04:42:07,2420,42.8014,5.9826,4330,272,186.126,57.006,13.311,36.061,36.641,41.230,4.589,295.9,545.4,291.2
2023-12-30T04:45:07,2420,42.8014,5.9826,4330,272,186.379,57.081,13.309,36.046,36.626,41.214,4.588,295.8,545.4,291.3
2023-12-30T04:48:08,2420,42.8014,5.9826,4330,272,186.434,57.096,13.307,36.043,36.623,41.206,4.583,295.9,545.4,291.3
2023-12-30T04:51:08,2420,42.8014,5.9826,4330,272,186.210,57.027,13.307,36.057,36.637,41.225,4.588,295.9,545.4,291.3
2023-12-30T04:54:07,2420,42.8014,5.9826,4330,272,186.422,57.091,13.306,36.045,36.625,41.211,4.586,295.9,545.3,291.4
2023-12-30T04:57:07,2420,42.8014,5.9826,4330,272,186.202,57.024,13.307,36.058,36.638,41.226,4.588,295.9,545.3,291.3
2023-12-30T05:00:08,2420,42.8014,5.9826,4330,272,186.155,57.010,13.307,36.062,36.641,41.224,4.583,295.9,545.4,291.3
2023-12-30T05:03:07,2420,42.8014,5.9826,4330,272,186.391,57.084,13.308,36.046,36.626,41.215,4.590,295.8,545.4,291.3
2023-12-30T05:06:07,2420,42.8014,5.9826,4330,272,186.331,57.065,13.308,36.049,36.629,41.218,4.589,295.8,545.3,291.3
2023-12-30T05:09:08,2420,42.8014,5.9826,4330,272,186.435,57.101,13.311,36.041,36.621,41.209,4.588,295.9,545.3,291.2
2023-12-30T05:12:07,2420,42.8014,5.9826,4330,272,186.328,57.067,13.310,36.049,36.629,41.215,4.587,295.8,545.4,291.2
2023-12-30T05:15:08,2420,42.8014,5.9826,4330,272,186.599,57.150,13.310,36.031,36.611,41.198,4.587,295.8,545.3,291.2
2023-12-30T05:18:07,2420,42.8014,5.9826,4330,272,186.395,57.085,13.308,36.045,36.625,41.216,4.591,295.8,545.4,291.3
2023-12-30T05:21:07,2420,42.8014,5.9826,4330,272,186.520,57.121,13.306,36.038,36.618,41.200,4.583,295.8,545.4,291.4
2023-12-30T05:24:08,2420,42.8014,5.9826,4330,272,186.312,57.058,13.306,36.052,36.631,41.219,4.588,295.8,545.4,291.3
2023-12-30T05:27:07,2420,42.8014,5.9826,4330,272,186.711,57.187,13.312,36.023,36.603,41.199,4.597,295.8,545.4,291.1
2023-12-30T05:30:07,2420,42.8014,5.9826,4330,272,186.427,57.094,13.307,36.044,36.624,41.206,4.582,295.8,545.4,291.3
2023-12-30T05:33:07,2420,42.8014,5.9826,4330,272,186.507,57.122,13.310,36.037,36.617,41.207,4.590,295.8,545.3,291.2
2023-12-30T05:36:08,2420,42.8014,5.9826,4330,272,186.502,57.117,13.307,36.038,36.618,41.205,4.586,295.8,545.4,291.3
2023-12-30T05:39:07,2420,42.8014,5.9826,4330,272,186.562,57.137,13.309,36.033,36.613,41.209,4.595,295.7,545.3,291.3
2023-12-30T05:42:08,2420,42.8014,5.9826,4330,272,186.512,57.124,13.311,36.036,36.616,41.203,4.587,295.8,545.4,291.2
2023-12-30T05:45:08,2420,42.8014,5.9826,4330,272,186.480,57.113,13.309,36.039,36.619,41.202,4.584,295.8,545.4,291.3
2023-12-30T05:48:07,2420,42.8014,5.9826,4330,272,186.196,57.026,13.310,36.057,36.637,41.224,4.587,295.8,545.4,291.2
2023-12-30T05:51:07,2420,42.8014,5.9826,4330,272,186.411,57.088,13.307,36.044,36.624,41.210,4.585,295.8,545.3,291.3
2023-12-30T05:54:07,2420,42.8014,5.9826,4330,272,186.460,57.104,13.307,36.041,36.621,41.205,4.584,295.8,545.4,291.3
2023-12-30T05:57:08,2420,42.8014,5.9826,4330,272,186.256,57.043,13.308,36.054,36.634,41.219,4.585,295.7,545.5,291.3
2023-12-30T06:00:07,2420,42.8014,5.9826,4330,272,186.360,57.076,13.310,36.046,36.626,41.209,4.583,295.7,545.4,291.2
2023-12-30T06:03:08,2420,42.8014,5.9826,4330,272,186.365,57.076,13.308,36.047,36.627,41.212,4.585,295.7,545.4,291.3
2023-12-30T06:06:07,2420,42.8014,5.9826,4330,272,186.502,57.117,13.307,36.039,36.619,41.209,4.590,295.7,545.4,291.3
2023-12-30T06:09:08,2420,42.8014,5.9826,4330,272,186.385,57.084,13.309,36.045,36.625,41.210,4.585,295.8,545.4,291.2
2023-12-30T06:12:08,2420,42.8014,5.9826,4330,272,186.236,57.036,13.308,36.056,36.636,41.221,4.586,295.8,545.3,291.3
2023-12-30T06:15:07,2420,42.8014,5.9826,4330,272,186.403,57.087,13.307,36.045,36.625,41.216,4.591,295.8,545.4,291.3
2023-12-30T06:18:08,2420,42.8014,5.9826,4330,272,186.414,57.095,13.311,36.043,36.623,41.208,4.586,295.7,545.4,291.2
2023-12-30T06:21:07,2420,42.8014,5.9826,4330,272,186.377,57.079,13.308,36.046,36.626,41.219,4.593,295.7,545.4,291.3
2023-12-30T06:24:07,2420,42.8014,5.9826,4330,272,186.735,57.195,13.313,36.020,36.601,41.190,4.589,295.7,545.4,291.1
2023-12-30T06:27:08,2420,42.8014,5.9826,4330,272,186.279,57.051,13.309,36.052,36.632,41.218,4.586,295.8,545.3,291.3
2023-12-30T06:30:07,2420,42.8014,5.9826,4330,272,186.242,57.040,13.309,36.054,36.634,41.220,4.586,295.7,545.3,291.2
2023-12-30T06:33:08,2420,42.8014,5.9826,4330,272,186.348,57.074,13.310,36.047,36.627,41.210,4.583,295.8,545.3,291.2
2023-12-30T06:36:07,2420,42.8014,5.9826,4330,272,186.061,56.992,13.315,36.063,36.643,41.228,4.585,295.7,545.3,291.1
2023-12-30T06:39:07,2420,42.8014,5.9826,4330,272,186.457,57.111,13.313,36.039,36.619,41.206,4.588,295.8,545.4,291.1
2023-12-30T06:42:07,2420,42.8014,5.9826,4330,272,186.338,57.067,13.308,36.049,36.629,41.216,4.588,295.8,545.4,291.3
2023-12-30T06:45:08,2420,42.8014,5.9826,4330,272,186.643,57.162,13.309,36.029,36.609,41.198,4.589,295.7,545.3,291.3
2023-12-30T06:48:07,2420,42.8014,5.9826,4330,272,186.522,57.125,13.309,36.036,36.616,41.203,4.587,295.8,545.4,291.3
2023-12-30T06:51:08,2420,42.8014,5.9826,4330,272,186.343,57.069,13.308,36.048,36.628,41.217,4.589,295.8,545.4,291.3
2023-12-30T06:54:08,2420,42.8014,5.9826,4330,272,186.563,57.135,13.307,36.035,36.615,41.203,4.588,295.8,545.4,291.3
2023-12-30T06:57:07,2420,42.8014,5.9826,4330,272,186.489,57.115,13.309,36.038,36.618,41.209,4.590,295.7,545.4,291.3
2023-12-30T07:00:07,2420,42.8014,5.9826,4330,272,186.424,57.096,13.310,36.042,36.622,41.210,4.588,295.8,545.4,291.2
2023-12-30T07:03:08,2420,42.8014,5.9826,4330,272,186.488,57.120,13.313,36.037,36.617,41.206,4.590,295.7,545.3,291.1
2023-12-30T07:06:07,2420,42.8014,5.9826,4330,272,186.281,57.051,13.309,36.052,36.632,41.218,4.586,295.7,545.4,291.3
2023-12-30T07:09:07,2420,42.8014,5.9826,4330,272,186.464,57.105,13.307,36.042,36.622,41.207,4.585,295.8,545.4,291.3
2023-12-30T07:12:07,2420,42.8014,5.9826,4330,272,186.446,57.105,13.311,36.040,36.620,41.206,4.587,295.7,545.3,291.2
2023-12-30T07:15:08,2420,42.8014,5.9826,4330,272,186.387,57.087,13.312,36.044,36.624,41.206,4.582,295.8,545.4,291.2
2023-12-30T07:18:07,2420,42.8014,5.9826,4330,272,186.318,57.070,13.315,36.047,36.627,41.216,4.589,295.8,545.4,291.1
2023-12-30T07:21:07,2420,42.8014,5.9826,4330,272,186.496,57.117,13.309,36.038,36.618,41.208,4.590,295.7,545.4,291.3
2023-12-30T07:24:07,2420,42.8014,5.9826,4330,272,186.462,57.105,13.308,36.041,36.621,41.211,4.590,295.8,545.4,291.3
2023-12-30T07:27:07,2420,42.8014,5.9826,4330,272,186.802,57.214,13.311,36.017,36.597,41.188,4.590,295.8,545.3,291.2
2023-12-30T07:30:08,2420,42.8014,5.9826,4330,272,186.375,57.081,13.310,36.045,36.625,41.212,4.587,295.7,545.3,291.2
2023-12-30T07:33:07,2420,42.8014,5.9826,4330,272,186.273,57.052,13.311,36.052,36.632,41.219,4.587,295.8,545.3,291.2
2023-12-30T07:36:07,2420,42.8014,5.9826,4330,272,186.410,57.090,13.308,36.044,36.624,41.210,4.586,295.8,545.4,291.3
2023-12-30T07:39:08,2420,42.8014,5.9826,4330,272,186.382,57.083,13.309,36.045,36.625,41.206,4.581,295.8,545.4,291.2
2023-12-30T07:42:07,2420,42.8014,5.9826,4330,272,186.536,57.131,13.310,36.035,36.615,41.202,4.587,295.8,545.3,291.2
2023-12-30T07:45:08,2420,42.8014,5.9826,4330,272,186.299,57.059,13.310,36.050,36.630,41.212,4.582,295.7,545.4,291.2
2023-12-30T07:48:08,2420,42.8014,5.9826,4330,272,186.534,57.132,13.311,36.034,36.614,41.200,4.585,295.8,545.4,291.2
2023-12-30T07:51:07,2420,42.8014,5.9826,4330,272,186.587,57.148,13.311,36.031,36.611,41.201,4.590,295.8,545.4,291.2
2023-12-30T07:54:07,2420,42.8014,5.9826,4330,272,186.579,57.145,13.311,36.032,36.612,41.202,4.590,295.7,545.3,291.2
2023-12-30T07:57:08,2420,42.8014,5.9826,4330,272,186.533,57.134,13.313,36.034,36.614,41.206,4.593,295.7,545.4,291.1
2023-12-30T08:00:08,2420,42.8014,5.9826,4330,272,186.419,57.095,13.310,36.043,36.623,41.209,4.586,295.9,545.4,291.2
2023-12-30T08:03:07,2420,42.8014,5.9826,4330,272,186.461,57.106,13.309,36.040,36.620,41.203,4.583,295.7,545.4,291.3
2023-12-30T08:06:08,2420,42.8014,5.9826,4330,272,186.479,57.113,13.310,36.038,36.618,41.208,4.590,295.7,545.4,291.2
2023-12-30T08:09:07,2420,42.8014,5.9826,4330,272,186.367,57.079,13.310,36.046,36.626,41.213,4.587,295.8,545.3,291.2
2023-12-30T08:12:08,2420,42.8014,5.9826,4330,272,186.363,57.077,13.309,36.046,36.626,41.210,4.583,295.7,545.3,291.3
2023-12-30T08:15:08,2420,42.8014,5.9826,4330,272,186.525,57.128,13.310,36.036,36.616,41.199,4.583,295.8,545.3,291.2
2023-12-30T08:18:07,2420,42.8014,5.9826,4330,272,186.380,57.083,13.310,36.045,36.625,41.208,4.583,295.7,545.3,291.2
2023-12-30T08:21:07,2420,42.8014,5.9826,4330,272,186.382,57.089,13.314,36.043,36.623,41.207,4.583,295.7,545.3,291.1
2023-12-30T08:24:07,2420,42.8014,5.9826,4330,272,186.100,56.998,13.311,36.063,36.643,41.226,4.583,295.8,545.4,291.2
2023-12-30T08:27:08,2420,42.8014,5.9826,4330,272,186.300,57.060,13.311,36.050,36.630,41.214,4.584,295.7,545.3,291.2
2023-12-30T08:30:07,2420,42.8014,5.9826,4330,272,186.219,57.037,13.313,36.054,36.634,41.223,4.589,295.8,545.3,291.1
2023-12-30T08:33:08,2420,42.8014,5.9826,4330,272,186.674,57.171,13.308,36.027,36.607,41.196,4.589,295.7,545.3,291.3
2023-12-30T08:36:07,2420,42.8014,5.9826,4330,272,186.481,57.113,13.309,36.039,36.619,41.213,4.594,295.7,545.4,291.2
2023-12-30T08:39:08,2420,42.8014,5.9826,4330,272,186.454,57.107,13.311,36.039,36.619,41.204,4.585,295.8,545.3,291.2
2023-12-30T08:42:08,2420,42.8014,5.9826,4330,272,186.346,57.076,13.312,36.046,36.626,41.211,4.585,295.8,545.3,291.2
2023-12-30T08:45:07,2420,42.8014,5.9826,4330,272,186.441,57.109,13.316,36.038,36.618,41.209,4.591,295.8,545.3,291.0
2023-12-30T08:48:07,2420,42.8014,5.9826,4330,272,186.332,57.068,13.310,36.048,36.628,41.216,4.588,295.7,545.4,291.2
2023-12-30T08:51:07,2420,42.8014,5.9826,4330,272,186.416,57.094,13.310,36.043,36.623,41.210,4.586,295.9,545.4,291.2
2023-12-30T08:54:08,2420,42.8014,5.9826,4330,272,186.390,57.085,13.310,36.045,36.625,41.213,4.588,295.6,545.3,291.2
2023-12-30T08:57:07,2420,42.8014,5.9826,4330,272,186.599,57.148,13.309,36.031,36.611,41.200,4.588,295.8,545.3,291.3
2023-12-30T09:00:07,2420,42.8014,5.9826,4330,272,186.343,57.072,13.310,36.047,36.627,41.217,4.590,295.7,545.4,291.2
2023-12-30T09:03:07,2420,42.8014,5.9826,4330,272,186.356,57.075,13.310,36.047,36.627,41.212,4.585,295.7,545.3,291.2
2023-12-30T09:06:08,2420,42.8014,5.9826,4330,272,186.419,57.094,13.309,36.043,36.623,41.210,4.588,295.7,545.3,291.3
2023-12-30T09:09:08,2420,42.8014,5.9826,4330,272,186.447,57.106,13.312,36.040,36.620,41.206,4.587,295.8,545.4,291.2
2023-12-30T09:12:07,2420,42.8014,5.9826,4330,272,186.344,57.074,13.312,36.046,36.626,41.217,4.591,295.7,545.3,291.2
2023-12-30T09:15:07,2420,42.8014,5.9826,4330,272,186.270,57.063,13.321,36.047,36.627,41.210,4.582,295.8,545.3,290.9
2023-12-30T09:18:07,2420,42.8014,5.9826,4330,272,186.266,57.049,13.310,36.052,36.632,41.223,4.591,295.7,545.3,291.2
2023-12-30T09:21:08,2420,42.8014,5.9826,4330,272,186.288,57.054,13.309,36.051,36.631,41.218,4.587,295.9,545.3,291.3
2023-12-30T09:24:07,2420,42.8014,5.9826,4330,272,186.695,57.181,13.311,36.024,36.604,41.194,4.590,295.8,545.4,291.2
2023-12-30T09:27:07,2420,42.8014,5.9826,4330,272,186.498,57.121,13.311,36.036,36.617,41.203,4.587,295.8,545.3,291.2
2023-12-30T09:30:07,2420,42.8014,5.9826,4330,272,186.621,57.157,13.310,36.029,36.610,41.201,4.592,295.8,545.4,291.2
2023-12-30T09:33:07,2420,42.8014,5.9826,4330,272,186.559,57.140,13.312,36.033,36.613,41.203,4.590,295.8,545.4,291.2
2023-12-30T09:36:07,2420,42.8014,5.9826,4330,272,186.621,57.159,13.312,36.029,36.609,41.202,4.593,295.8,545.3,291.2
2023-12-30T09:39:08,2420,42.8014,5.9826,4330,272,186.345,57.074,13.311,36.047,36.627,41.213,4.587,295.8,545.3,291.2
2023-12-30T09:42:08,2420,42.8014,5.9826,4330,272,186.431,57.100,13.311,36.041,36.621,41.211,4.590,295.8,545.4,291.2
2023-12-30T09:45:07,2420,42.8014,5.9826,4330,272,186.187,57.027,13.312,36.056,36.636,41.226,4.590,295.9,545.4,291.2
2023-12-30T09:48:07,2420,42.8014,5.9826,4330,272,186.521,57.125,13.309,36.036,36.616,41.207,4.590,295.8,545.4,291.3
2023-12-30T09:51:07,2420,42.8014,5.9826,4330,272,186.618,57.157,13.311,36.029,36.609,41.195,4.586,295.8,545.3,291.2
2023-12-30T09:54:08,2420,42.8014,5.9826,4330,272,186.432,57.098,13.310,36.042,36.622,41.209,4.587,295.8,545.4,291.2
2023-12-30T09:57:07,2420,42.8014,5.9826,4330,272,186.665,57.170,13.310,36.026,36.607,41.198,4.592,295.9,545.4,291.2
2023-12-30T10:00:08,2420,42.8014,5.9826,4330,272,186.348,57.073,13.310,36.047,36.627,41.214,4.587,295.8,545.4,291.2